Tracking 35030 objects as of 11-Aug-2026
HD Live streaming from Space Station
objects crossing your sky now

FREGAT DEB


FREGAT DEB is no longer on orbit


NORAD ID: 46398
Int'l Code: 2011-037LB
Launch date: July 18, 2011
Source: Commonwealth of Independent States (former USSR) (CIS)
Launch site: TYURATAM MISSILE AND SPACE COMPLEX (TTMTR)
Decay date: 2021-10-03

Note: This is SATELLITE DEBRIS
Your satellite tracking list
Your tracking list is empty




NASA's NSSDC Master Catalog

Two Line Element Set (TLE):
1 46398U 11037LD  21273.50508349  .16496677  00000-0  16111+0 0  9996
2 46398  51.2922  97.2364 0093143 351.7799   8.1657 15.56745957 47467
Source of the keplerian elements: AFSPC